AZU555 SVMI-MPTO

Flight info

Callsign AZU555
Flight time 1h 54m
Altitude 24000
Route MARES1 MARES A315 ATONO G427 PBL/N0478F380 UP650 TBG
Aircraft A339/H-SADE1E2E3GHIJ3J5M1P2RWXY/LB2D1

Departure

Time 2026-04-28 18:16
Airport Maiquetía Simón Bolívar International Airport (SVMI)

Arrival

Time 2026-04-28 20:10
Airport Tocumen International Airport (MPTO)
Time Latitude Longitude Altitude Speed Heading
2026-04-28 17:50 10.59848 -66.99934 329 ft 0 kts 177°
2026-04-28 18:02 10.59855 -66.99934 330 ft 2 kts 173°
2026-04-28 18:02 10.59869 -66.99938 329 ft 2 kts 156°
2026-04-28 18:02 10.59882 -66.99945 329 ft 2 kts 144°
2026-04-28 18:03 10.59894 -66.99955 329 ft 2 kts 130°
2026-04-28 18:03 10.59903 -66.99967 329 ft 2 kts 118°
2026-04-28 18:03 10.59908 -66.99982 330 ft 2 kts 105°
2026-04-28 18:03 10.59911 -66.99996 330 ft 2 kts 92°
2026-04-28 18:04 10.59911 -67.00010 330 ft 0 kts 87°
2026-04-28 18:04 10.59911 -67.00011 330 ft 0 kts 87°
2026-04-28 18:09 10.59911 -67.00010 330 ft 0 kts 87°
2026-04-28 18:09 10.59912 -66.99992 329 ft 4 kts 87°
2026-04-28 18:09 10.59914 -66.99947 328 ft 7 kts 86°
2026-04-28 18:09 10.59938 -66.99921 327 ft 6 kts
2026-04-28 18:10 10.59992 -66.99915 325 ft 9 kts
2026-04-28 18:10 10.60065 -66.99928 323 ft 11 kts 336°
2026-04-28 18:10 10.60114 -66.99985 323 ft 8 kts 277°
2026-04-28 18:10 10.60111 -67.00040 325 ft 7 kts 266°
2026-04-28 18:11 10.60107 -67.00094 325 ft 7 kts 266°
2026-04-28 18:11 10.60103 -67.00151 326 ft 8 kts 266°
2026-04-28 18:11 10.60099 -67.00211 327 ft 8 kts 266°
2026-04-28 18:11 10.60088 -67.00269 328 ft 8 kts 237°
2026-04-28 18:12 10.60040 -67.00306 329 ft 8 kts 210°
2026-04-28 18:12 10.60009 -67.00344 329 ft 6 kts 258°
2026-04-28 18:12 10.60000 -67.00394 329 ft 8 kts 267°
2026-04-28 18:12 10.59996 -67.00465 329 ft 11 kts 268°
2026-04-28 18:13 10.59994 -67.00559 328 ft 14 kts 268°
2026-04-28 18:13 10.59990 -67.00678 326 ft 18 kts 268°
2026-04-28 18:13 10.59986 -67.00816 322 ft 20 kts 268°
2026-04-28 18:13 10.59981 -67.00973 317 ft 22 kts 268°
2026-04-28 18:14 10.59974 -67.01139 311 ft 24 kts 267°
2026-04-28 18:14 10.60030 -67.01248 307 ft 16 kts 355°
2026-04-28 18:14 10.60144 -67.01254 307 ft 16 kts 358°
2026-04-28 18:14 10.60251 -67.01257 308 ft 12 kts 357°
2026-04-28 18:15 10.60336 -67.01261 308 ft 11 kts
2026-04-28 18:15 10.60374 -67.01231 310 ft 5 kts 81°
2026-04-28 18:15 10.60380 -67.01158 312 ft 30 kts 87°
2026-04-28 18:15 10.60395 -67.00724 324 ft 90 kts 88°
2026-04-28 18:16 10.60420 -66.99891 313 ft 143 kts 87°
2026-04-28 18:16 10.60463 -66.98752 432 ft 173 kts 88°
2026-04-28 18:16 10.60570 -66.97483 748 ft 188 kts 80°
2026-04-28 18:16 10.60969 -66.96281 1511 ft 181 kts 54°
2026-04-28 18:17 10.61950 -66.95557 2264 ft 176 kts 22°
2026-04-28 18:17 10.63227 -66.95483 2610 ft 198 kts 348°
2026-04-28 18:17 10.64433 -66.96262 2885 ft 221 kts 308°
2026-04-28 18:17 10.65008 -66.97767 3177 ft 239 kts 281°
2026-04-28 18:18 10.65323 -66.99486 3496 ft 257 kts 281°
2026-04-28 18:18 10.65661 -67.01327 3808 ft 274 kts 281°
2026-04-28 18:18 10.66020 -67.03277 4009 ft 282 kts 281°
2026-04-28 18:18 10.66259 -67.04569 4011 ft 283 kts 281°
2026-04-28 18:19 10.67235 -67.07018 4000 ft 281 kts 307°
2026-04-28 18:19 10.68486 -67.08563 3998 ft 281 kts 313°
2026-04-28 18:19 10.69786 -67.10043 3988 ft 281 kts 313°
2026-04-28 18:19 10.71070 -67.11536 3982 ft 282 kts 311°
2026-04-28 18:20 10.72346 -67.13071 3974 ft 282 kts 311°
2026-04-28 18:20 10.73605 -67.14623 4109 ft 288 kts 310°
2026-04-28 18:20 10.74879 -67.16212 4786 ft 290 kts 310°
2026-04-28 18:20 10.76123 -67.17773 5579 ft 288 kts 310°
2026-04-28 18:21 10.77383 -67.19359 6269 ft 291 kts 310°
2026-04-28 18:21 10.78657 -67.20959 6911 ft 295 kts 310°
2026-04-28 18:21 10.79940 -67.22614 7535 ft 299 kts 308°
2026-04-28 18:21 10.81207 -67.24317 8167 ft 302 kts 308°
2026-04-28 18:22 10.82464 -67.26023 8766 ft 307 kts 308°
2026-04-28 18:22 10.83752 -67.27769 9368 ft 311 kts 308°
2026-04-28 18:22 10.85070 -67.29548 9974 ft 315 kts 308°
2026-04-28 18:22 10.86396 -67.31334 10433 ft 323 kts 308°
2026-04-28 18:23 10.87790 -67.33209 10740 ft 339 kts 308°
2026-04-28 18:23 10.89240 -67.35161 11034 ft 355 kts 308°
2026-04-28 18:23 10.90755 -67.37201 11275 ft 370 kts 307°
2026-04-28 18:23 10.92348 -67.39347 11549 ft 385 kts 307°
2026-04-28 18:24 10.93992 -67.41562 11882 ft 396 kts 307°
2026-04-28 18:24 10.95091 -67.43042 12239 ft 399 kts 307°
2026-04-28 18:24 10.96795 -67.46372 12965 ft 402 kts 281°
2026-04-28 18:24 10.96894 -67.49182 13600 ft 400 kts 260°
2026-04-28 18:25 10.96030 -67.51816 14201 ft 398 kts 239°
2026-04-28 18:25 10.94364 -67.54040 14731 ft 397 kts 226°
2026-04-28 18:25 10.92489 -67.56131 15232 ft 401 kts 226°
2026-04-28 18:26 10.88760 -67.60416 16279 ft 408 kts 227°
2026-04-28 18:26 10.86903 -67.62584 16776 ft 410 kts 227°
2026-04-28 18:26 10.85020 -67.64793 17283 ft 413 kts 228°
2026-04-28 18:26 10.83139 -67.67005 17803 ft 416 kts 227°
2026-04-28 18:27 10.81238 -67.69241 18303 ft 419 kts 227°
2026-04-28 18:27 10.79319 -67.71495 18790 ft 422 kts 227°
2026-04-28 18:27 10.77381 -67.73771 19281 ft 424 kts 227°
2026-04-28 18:27 10.75449 -67.76035 19716 ft 427 kts 228°
2026-04-28 18:28 10.73500 -67.78320 20180 ft 430 kts 228°
2026-04-28 18:28 10.71540 -67.80617 20635 ft 433 kts 228°
2026-04-28 18:28 10.69559 -67.82940 21061 ft 436 kts 228°
2026-04-28 18:28 10.67562 -67.85285 21470 ft 439 kts 228°
2026-04-28 18:29 10.65553 -67.87645 21882 ft 442 kts 228°
2026-04-28 18:29 10.63532 -67.90018 22275 ft 445 kts 228°
2026-04-28 18:29 10.61516 -67.92384 22669 ft 447 kts 228°
2026-04-28 18:29 10.59467 -67.94791 23103 ft 449 kts 228°
2026-04-28 18:30 10.57435 -67.97176 23540 ft 450 kts 228°
2026-04-28 18:30 10.56754 -67.97975 23683 ft 451 kts 228°
2026-04-28 18:30 10.53309 -68.02017 24383 ft 453 kts 228°
2026-04-28 18:30 10.51248 -68.04447 24791 ft 454 kts 230°
2026-04-28 18:31 10.49494 -68.07121 25157 ft 458 kts 241°
2026-04-28 18:31 10.48288 -68.10108 25532 ft 461 kts 252°
2026-04-28 18:31 10.47648 -68.13306 25904 ft 464 kts 261°
2026-04-28 18:31 10.47251 -68.16536 26288 ft 466 kts 262°
2026-04-28 18:32 10.46874 -68.19817 26644 ft 468 kts 262°
2026-04-28 18:32 10.46498 -68.23083 26985 ft 469 kts 262°
2026-04-28 18:32 10.46112 -68.26367 27323 ft 471 kts 261°
2026-04-28 18:32 10.45720 -68.29666 27668 ft 472 kts 261°
2026-04-28 18:33 10.45322 -68.32967 28016 ft 473 kts 261°
2026-04-28 18:33 10.44919 -68.36288 28370 ft 474 kts 261°
2026-04-28 18:33 10.44516 -68.39593 28856 ft 472 kts 261°
2026-04-28 18:33 10.44111 -68.42882 29412 ft 468 kts 262°
2026-04-28 18:34 10.43712 -68.46128 29959 ft 465 kts 262°
2026-04-28 18:34 10.43310 -68.49393 30465 ft 462 kts 262°
2026-04-28 18:34 10.42914 -68.52613 30949 ft 460 kts 262°
2026-04-28 18:34 10.42518 -68.55830 31436 ft 458 kts 262°
2026-04-28 18:35 10.42122 -68.59045 31899 ft 456 kts 262°
2026-04-28 18:35 10.41732 -68.62211 32325 ft 455 kts 263°
2026-04-28 18:35 10.41338 -68.65411 32708 ft 455 kts 263°
2026-04-28 18:35 10.40945 -68.68602 33121 ft 455 kts 263°
2026-04-28 18:36 10.40555 -68.71772 33525 ft 455 kts 263°
2026-04-28 18:36 10.40162 -68.74959 33865 ft 456 kts 263°
2026-04-28 18:36 10.39770 -68.78142 33927 ft 456 kts 263°
2026-04-28 18:37 10.38980 -68.84526 33948 ft 456 kts 263°
2026-04-28 18:37 10.38187 -68.90923 33970 ft 456 kts 263°
2026-04-28 18:38 10.37400 -68.97268 33994 ft 455 kts 263°
2026-04-28 18:38 10.36607 -69.03647 34016 ft 455 kts 263°
2026-04-28 18:39 10.35813 -69.10018 34001 ft 454 kts 263°
2026-04-28 18:39 10.35023 -69.16357 33986 ft 456 kts 263°
2026-04-28 18:40 10.34227 -69.22725 33961 ft 456 kts 263°
2026-04-28 18:40 10.33428 -69.29109 33954 ft 456 kts 263°
2026-04-28 18:41 10.32632 -69.35465 33962 ft 455 kts 263°
2026-04-28 18:41 10.31832 -69.41859 33971 ft 455 kts 263°
2026-04-28 18:42 10.31038 -69.48182 33975 ft 454 kts 263°
2026-04-28 18:42 10.30232 -69.54561 33975 ft 454 kts 263°
2026-04-28 18:43 10.29429 -69.60878 33970 ft 453 kts 263°
2026-04-28 18:43 10.28622 -69.67245 33964 ft 453 kts 263°
2026-04-28 18:44 10.27819 -69.73587 33961 ft 453 kts 263°
2026-04-28 18:44 10.26615 -69.83086 33953 ft 454 kts 263°
2026-04-28 18:45 10.25803 -69.89473 33941 ft 454 kts 263°
2026-04-28 18:45 10.25000 -69.95776 33928 ft 454 kts 263°
2026-04-28 18:46 10.24193 -70.02121 33924 ft 454 kts 263°
2026-04-28 18:46 10.23381 -70.08483 33933 ft 454 kts 263°
2026-04-28 18:47 10.22576 -70.14799 33937 ft 453 kts 263°
2026-04-28 18:47 10.21767 -70.21130 33941 ft 453 kts 263°
2026-04-28 18:48 10.20950 -70.27467 33940 ft 453 kts 263°
2026-04-28 18:48 10.20131 -70.33803 33942 ft 453 kts 263°
2026-04-28 18:49 10.19589 -70.38006 33944 ft 454 kts 263°
2026-04-28 18:49 10.18495 -70.46482 33949 ft 454 kts 263°
2026-04-28 18:50 10.17681 -70.52784 33951 ft 453 kts 263°
2026-04-28 18:50 10.16858 -70.59155 33948 ft 454 kts 263°
2026-04-28 18:51 10.16041 -70.65465 33939 ft 453 kts 263°
2026-04-28 18:51 10.15212 -70.71851 33934 ft 453 kts 263°
2026-04-28 18:52 10.14397 -70.78148 33920 ft 453 kts 263°
2026-04-28 18:52 10.13573 -70.84501 33904 ft 454 kts 263°
2026-04-28 18:53 10.12750 -70.90802 33877 ft 453 kts 263°
2026-04-28 18:53 10.11918 -70.97137 33848 ft 454 kts 263°
2026-04-28 18:54 10.11085 -71.03491 33828 ft 454 kts 262°
2026-04-28 18:54 10.10254 -71.09823 33819 ft 454 kts 263°
2026-04-28 18:55 10.09562 -71.15101 33812 ft 453 kts 263°
2026-04-28 18:55 10.08590 -71.22504 33808 ft 453 kts 262°
2026-04-28 18:56 10.07758 -71.28841 33803 ft 453 kts 263°
2026-04-28 18:56 10.06929 -71.35143 33803 ft 454 kts 262°
2026-04-28 18:57 10.06012 -71.41495 33804 ft 454 kts 261°
2026-04-28 18:57 10.05011 -71.47792 33807 ft 454 kts 261°
2026-04-28 18:58 10.04019 -71.54090 33810 ft 454 kts 261°
2026-04-28 18:58 10.03031 -71.60417 33807 ft 453 kts 261°
2026-04-28 18:59 10.02047 -71.66724 33811 ft 453 kts 261°
2026-04-28 18:59 10.01066 -71.72993 33815 ft 452 kts 261°
2026-04-28 19:00 10.00069 -71.79311 33820 ft 452 kts 261°
2026-04-28 19:00 9.99079 -71.85562 33819 ft 452 kts 261°
2026-04-28 19:01 9.98080 -71.91881 33813 ft 453 kts 261°
2026-04-28 19:01 9.97084 -71.98180 33802 ft 453 kts 261°
2026-04-28 19:02 9.96090 -72.04469 33797 ft 453 kts 261°
2026-04-28 19:02 9.95092 -72.10778 33799 ft 453 kts 261°
2026-04-28 19:03 9.94098 -72.17049 33815 ft 452 kts 261°
2026-04-28 19:03 9.93096 -72.23375 33831 ft 452 kts 261°
2026-04-28 19:04 9.92102 -72.29642 33837 ft 451 kts 261°
2026-04-28 19:04 9.91106 -72.35901 33853 ft 451 kts 261°
2026-04-28 19:05 9.90108 -72.42176 33877 ft 452 kts 261°
2026-04-28 19:05 9.89105 -72.48470 33886 ft 452 kts 261°
2026-04-28 19:06 9.88270 -72.53706 33909 ft 452 kts 261°
2026-04-28 19:06 9.87100 -72.61038 33928 ft 452 kts 261°
2026-04-28 19:07 9.86090 -72.67353 33942 ft 453 kts 261°
2026-04-28 19:07 9.85085 -72.73633 33949 ft 453 kts 261°
2026-04-28 19:08 9.84077 -72.79933 34002 ft 453 kts 261°
2026-04-28 19:08 9.83070 -72.86214 34090 ft 453 kts 261°
2026-04-28 19:09 9.82065 -72.92482 34151 ft 452 kts 261°
2026-04-28 19:09 9.81049 -72.98777 34194 ft 451 kts 261°
2026-04-28 19:10 9.80012 -73.05008 34183 ft 452 kts 260°
2026-04-28 19:10 9.78961 -73.11309 34139 ft 452 kts 260°
2026-04-28 19:11 9.77916 -73.17585 34066 ft 453 kts 260°
2026-04-28 19:11 9.76868 -73.23881 33986 ft 453 kts 260°
2026-04-28 19:12 9.75823 -73.30157 33923 ft 454 kts 260°
2026-04-28 19:12 9.74772 -73.36465 33901 ft 454 kts 260°
2026-04-28 19:13 9.73724 -73.42745 33901 ft 454 kts 260°
2026-04-28 19:13 9.72669 -73.49062 33873 ft 454 kts 260°
2026-04-28 19:14 9.71618 -73.55347 33860 ft 455 kts 260°
2026-04-28 19:14 9.70566 -73.61641 33851 ft 454 kts 260°
2026-04-28 19:15 9.69507 -73.67969 33846 ft 455 kts 260°
2026-04-28 19:15 9.68625 -73.73231 33829 ft 455 kts 260°
2026-04-28 19:16 9.67394 -73.80615 33819 ft 455 kts 260°
2026-04-28 19:16 9.66346 -73.86913 33822 ft 456 kts 260°
2026-04-28 19:17 9.65297 -73.93215 33813 ft 455 kts 260°
2026-04-28 19:17 9.64241 -73.99545 33804 ft 456 kts 260°
2026-04-28 19:18 9.63188 -74.05853 33795 ft 456 kts 260°
2026-04-28 19:18 9.62128 -74.12196 33789 ft 456 kts 260°
2026-04-28 19:19 9.61071 -74.18523 33788 ft 456 kts 260°
2026-04-28 19:19 9.60011 -74.24857 33789 ft 456 kts 259°
2026-04-28 19:20 9.58951 -74.31183 33790 ft 455 kts 259°
2026-04-28 19:20 9.57891 -74.37495 33794 ft 456 kts 259°
2026-04-28 19:21 9.56835 -74.43782 33793 ft 456 kts 259°
2026-04-28 19:21 9.55772 -74.50106 33792 ft 456 kts 259°
2026-04-28 19:22 9.55065 -74.54305 33790 ft 456 kts 259°
2026-04-28 19:22 9.53641 -74.62764 33787 ft 456 kts 259°
2026-04-28 19:23 9.52577 -74.69072 33787 ft 456 kts 259°
2026-04-28 19:23 9.51512 -74.75385 33786 ft 456 kts 259°
2026-04-28 19:24 9.50446 -74.81705 33790 ft 455 kts 259°
2026-04-28 19:24 9.49358 -74.88000 33795 ft 455 kts 259°
2026-04-28 19:25 9.48220 -74.94277 33801 ft 455 kts 258°
2026-04-28 19:25 9.47073 -75.00604 33806 ft 456 kts 258°
2026-04-28 19:26 9.45929 -75.06928 33819 ft 456 kts 258°
2026-04-28 19:26 9.44795 -75.13210 33828 ft 456 kts 258°
2026-04-28 19:27 9.43655 -75.19522 33838 ft 455 kts 258°
2026-04-28 19:27 9.42516 -75.25818 33844 ft 456 kts 258°
2026-04-28 19:28 9.41380 -75.32093 33849 ft 455 kts 258°
2026-04-28 19:28 9.40240 -75.38387 33849 ft 454 kts 258°
2026-04-28 19:29 9.39292 -75.43616 33842 ft 454 kts 259°
2026-04-28 19:29 9.37965 -75.50929 33835 ft 454 kts 258°
2026-04-28 19:30 9.36822 -75.57216 33827 ft 454 kts 258°
2026-04-28 19:30 9.35681 -75.63488 33823 ft 454 kts 258°
2026-04-28 19:31 9.34539 -75.69753 33818 ft 454 kts 258°
2026-04-28 19:31 9.33399 -75.76007 33809 ft 453 kts 258°
2026-04-28 19:32 9.32252 -75.82289 33808 ft 453 kts 258°
2026-04-28 19:32 9.31108 -75.88560 33815 ft 452 kts 258°
2026-04-28 19:33 9.29974 -75.94763 33821 ft 452 kts 258°
2026-04-28 19:33 9.28827 -76.01030 33821 ft 452 kts 258°
2026-04-28 19:34 9.27687 -76.07249 33822 ft 452 kts 258°
2026-04-28 19:34 9.26542 -76.13493 33823 ft 452 kts 258°
2026-04-28 19:35 9.25394 -76.19743 33823 ft 452 kts 258°
2026-04-28 19:35 9.24246 -76.25985 33821 ft 452 kts 258°
2026-04-28 19:36 9.23096 -76.32234 33820 ft 452 kts 258°
2026-04-28 19:36 9.21950 -76.38460 33824 ft 452 kts 258°
2026-04-28 19:37 9.20989 -76.43679 33823 ft 452 kts 258°
2026-04-28 19:37 9.19648 -76.50949 33822 ft 452 kts 258°
2026-04-28 19:38 9.18490 -76.57214 33824 ft 453 kts 258°
2026-04-28 19:38 9.17341 -76.63429 33830 ft 453 kts 258°
2026-04-28 19:39 9.16176 -76.69728 33834 ft 453 kts 258°
2026-04-28 19:39 9.15023 -76.75955 33836 ft 452 kts 258°
2026-04-28 19:40 9.13860 -76.82229 33834 ft 452 kts 258°
2026-04-28 19:40 9.12700 -76.88479 33839 ft 452 kts 258°
2026-04-28 19:41 9.11547 -76.94683 33830 ft 451 kts 258°
2026-04-28 19:41 9.10964 -76.97823 33511 ft 453 kts 258°
2026-04-28 19:41 9.10384 -77.00939 32877 ft 453 kts 258°
2026-04-28 19:42 9.09807 -77.04037 32293 ft 450 kts 258°
2026-04-28 19:42 9.09232 -77.07133 31728 ft 448 kts 258°
2026-04-28 19:42 9.08655 -77.10229 31167 ft 448 kts 258°
2026-04-28 19:42 9.08265 -77.12321 30785 ft 451 kts 258°
2026-04-28 19:43 9.07491 -77.16474 30033 ft 454 kts 258°
2026-04-28 19:43 9.06912 -77.19582 29465 ft 456 kts 258°
2026-04-28 19:43 9.06325 -77.22732 28898 ft 459 kts 258°
2026-04-28 19:43 9.05732 -77.25916 28335 ft 461 kts 258°
2026-04-28 19:44 9.05140 -77.29095 27790 ft 463 kts 258°
2026-04-28 19:44 9.04542 -77.32304 27241 ft 460 kts 258°
2026-04-28 19:44 9.03956 -77.35445 26704 ft 458 kts 258°
2026-04-28 19:44 9.03361 -77.38626 26163 ft 456 kts 258°
2026-04-28 19:45 9.02831 -77.41749 25635 ft 454 kts 260°
2026-04-28 19:45 9.02438 -77.44880 25108 ft 452 kts 262°
2026-04-28 19:45 9.02084 -77.48053 24576 ft 451 kts 262°
2026-04-28 19:45 9.01742 -77.51198 24047 ft 449 kts 262°
2026-04-28 19:46 9.01402 -77.54324 23520 ft 448 kts 262°
2026-04-28 19:46 9.01062 -77.57447 22996 ft 446 kts 262°
2026-04-28 19:46 9.00724 -77.60539 22475 ft 445 kts 262°
2026-04-28 19:46 9.00387 -77.63618 21960 ft 443 kts 263°
2026-04-28 19:47 9.00045 -77.66736 21447 ft 441 kts 263°
2026-04-28 19:47 8.99712 -77.69771 20949 ft 439 kts 263°
2026-04-28 19:47 8.99375 -77.72842 20432 ft 436 kts 263°
2026-04-28 19:47 8.99043 -77.75873 19937 ft 433 kts 263°
2026-04-28 19:48 8.98713 -77.78873 19446 ft 430 kts 263°
2026-04-28 19:48 8.98383 -77.81873 18955 ft 427 kts 263°
2026-04-28 19:48 8.98057 -77.84832 18483 ft 425 kts 263°
2026-04-28 19:48 8.97733 -77.87768 18010 ft 422 kts 263°
2026-04-28 19:49 8.97410 -77.90703 17536 ft 420 kts 263°
2026-04-28 19:49 8.97089 -77.93614 17061 ft 417 kts 263°
2026-04-28 19:49 8.96769 -77.96522 16603 ft 414 kts 263°
2026-04-28 19:49 8.96453 -77.99396 16138 ft 412 kts 263°
2026-04-28 19:50 8.95822 -78.05110 15209 ft 407 kts 263°
2026-04-28 19:50 8.95509 -78.07932 14764 ft 403 kts 263°
2026-04-28 19:50 8.95195 -78.10763 14360 ft 399 kts 263°
2026-04-28 19:51 8.94890 -78.13520 13961 ft 395 kts 263°
2026-04-28 19:51 8.94588 -78.16252 13567 ft 393 kts 263°
2026-04-28 19:51 8.94285 -78.18991 13172 ft 392 kts 263°
2026-04-28 19:51 8.93980 -78.21738 12778 ft 390 kts 263°
2026-04-28 19:52 8.93676 -78.24457 12384 ft 387 kts 263°
2026-04-28 19:52 8.93379 -78.27125 12262 ft 385 kts 263°
2026-04-28 19:52 8.93080 -78.29808 12209 ft 386 kts 263°
2026-04-28 19:52 8.92780 -78.32502 12166 ft 386 kts 263°
2026-04-28 19:53 8.92480 -78.35198 12119 ft 386 kts 263°
2026-04-28 19:53 8.92177 -78.37907 12074 ft 386 kts 263°
2026-04-28 19:53 8.91878 -78.40582 12032 ft 385 kts 263°
2026-04-28 19:53 8.91574 -78.43306 11985 ft 385 kts 263°
2026-04-28 19:54 8.91273 -78.45999 11942 ft 385 kts 263°
2026-04-28 19:54 8.90975 -78.48676 11894 ft 385 kts 263°
2026-04-28 19:54 8.90674 -78.51375 11848 ft 385 kts 263°
2026-04-28 19:54 8.90374 -78.54058 11802 ft 385 kts 263°
2026-04-28 19:55 8.90075 -78.56723 11755 ft 385 kts 263°
2026-04-28 19:55 8.89771 -78.59429 11700 ft 385 kts 263°
2026-04-28 19:55 8.89468 -78.62136 11651 ft 385 kts 263°
2026-04-28 19:55 8.89165 -78.64829 11604 ft 385 kts 263°
2026-04-28 19:56 8.88863 -78.67516 11557 ft 384 kts 263°
2026-04-28 19:56 8.88561 -78.70201 11513 ft 383 kts 263°
2026-04-28 19:56 8.88263 -78.72852 11470 ft 383 kts 263°
2026-04-28 19:56 8.87960 -78.75539 11412 ft 382 kts 263°
2026-04-28 19:57 8.87661 -78.78200 11357 ft 382 kts 264°
2026-04-28 19:57 8.87365 -78.80836 11302 ft 372 kts 264°
2026-04-28 19:57 8.87078 -78.83384 11246 ft 359 kts 264°
2026-04-28 19:57 8.86798 -78.85870 11043 ft 351 kts 264°
2026-04-28 19:58 8.86526 -78.88281 10826 ft 344 kts 264°
2026-04-28 19:58 8.86258 -78.90659 10597 ft 338 kts 264°
2026-04-28 19:58 8.85992 -78.93015 10374 ft 332 kts 264°
2026-04-28 19:58 8.85733 -78.95306 10175 ft 327 kts 264°
2026-04-28 19:59 8.85476 -78.97580 9968 ft 321 kts 264°
2026-04-28 19:59 8.85224 -78.99789 9766 ft 316 kts 264°
2026-04-28 19:59 8.84973 -79.01978 9553 ft 312 kts 264°
2026-04-28 19:59 8.84724 -79.04152 9343 ft 307 kts 264°
2026-04-28 20:00 8.84481 -79.06272 9126 ft 303 kts 264°
2026-04-28 20:00 8.84240 -79.08384 8915 ft 299 kts 264°
2026-04-28 20:00 8.84005 -79.10439 8702 ft 295 kts 264°
2026-04-28 20:00 8.83771 -79.12489 8466 ft 293 kts 264°
2026-04-28 20:01 8.83535 -79.14555 8196 ft 293 kts 265°
2026-04-28 20:01 8.83304 -79.16573 7925 ft 292 kts 265°
2026-04-28 20:01 8.83069 -79.18630 7650 ft 292 kts 265°
2026-04-28 20:01 8.82835 -79.20672 7385 ft 291 kts 265°
2026-04-28 20:02 8.82602 -79.22701 7115 ft 290 kts 265°
2026-04-28 20:02 8.82371 -79.24725 6839 ft 289 kts 265°
2026-04-28 20:02 8.82141 -79.26734 6569 ft 288 kts 265°
2026-04-28 20:02 8.81910 -79.28738 6331 ft 287 kts 265°
2026-04-28 20:03 8.81680 -79.30755 6090 ft 286 kts 266°
2026-04-28 20:03 8.81453 -79.32731 5940 ft 282 kts 266°
2026-04-28 20:03 8.81228 -79.34697 5945 ft 285 kts 266°
2026-04-28 20:03 8.81000 -79.36691 5910 ft 285 kts 266°
2026-04-28 20:04 8.80772 -79.38678 5912 ft 286 kts 266°
2026-04-28 20:04 8.80542 -79.40685 5927 ft 286 kts 266°
2026-04-28 20:04 8.80314 -79.42675 5934 ft 287 kts 266°
2026-04-28 20:04 8.80081 -79.44693 5936 ft 287 kts 266°
2026-04-28 20:05 8.79852 -79.46682 5938 ft 287 kts 266°
2026-04-28 20:05 8.79621 -79.48677 5933 ft 278 kts 266°
2026-04-28 20:05 8.79625 -79.50575 5817 ft 266 kts 289°
2026-04-28 20:05 8.80572 -79.52102 5633 ft 253 kts 326°
2026-04-28 20:06 8.82149 -79.52716 5458 ft 242 kts
2026-04-28 20:06 8.83719 -79.52222 5283 ft 237 kts 38°
2026-04-28 20:06 8.84922 -79.51081 5057 ft 237 kts 43°
2026-04-28 20:06 8.86155 -79.49985 4945 ft 230 kts 35°
2026-04-28 20:07 8.87452 -79.49113 4935 ft 219 kts 30°
2026-04-28 20:07 8.88327 -79.48601 4870 ft 214 kts 28°
2026-04-28 20:07 8.90029 -79.47644 4556 ft 207 kts 28°
2026-04-28 20:07 8.91353 -79.46859 3108 ft 256 kts 31°
2026-04-28 20:08 8.92936 -79.45901 1459 ft 290 kts 25°
2026-04-28 20:08 8.94722 -79.44915 493 ft 293 kts 29°
2026-04-28 20:08 8.96421 -79.43909 476 ft 262 kts 26°
2026-04-28 20:08 8.97932 -79.43068 427 ft 240 kts 26°
2026-04-28 20:09 8.99375 -79.42290 248 ft 227 kts 27°
2026-04-28 20:09 9.00734 -79.41564 202 ft 213 kts 29°
2026-04-28 20:09 9.01969 -79.40835 227 ft 193 kts 27°
2026-04-28 20:09 9.03102 -79.40200 194 ft 177 kts 27°
2026-04-28 20:10 9.04149 -79.39599 125 ft 167 kts 29°
2026-04-28 20:10 9.05139 -79.39049 48 ft 154 kts 27°
2026-04-28 20:10 9.05970 -79.38575 58 ft 113 kts 24°
2026-04-28 20:10 9.06411 -79.38325 62 ft 39 kts 30°
2026-04-28 20:11 9.06592 -79.38218 63 ft 22 kts 28°
2026-04-28 20:11 9.06706 -79.38155 63 ft 18 kts 30°
2026-04-28 20:11 9.06816 -79.38091 64 ft 17 kts 30°
2026-04-28 20:11 9.06923 -79.38031 64 ft 17 kts 28°
2026-04-28 20:12 9.07032 -79.37973 65 ft 17 kts 28°
2026-04-28 20:12 9.07137 -79.37930 66 ft 13 kts 355°
2026-04-28 20:12 9.07192 -79.37982 67 ft 10 kts 300°
2026-04-28 20:12 9.07202 -79.38030 68 ft 10 kts 260°
2026-04-28 20:13 9.07127 -79.38101 67 ft 12 kts 212°
2026-04-28 20:13 9.07049 -79.38148 67 ft 13 kts 209°
2026-04-28 20:13 9.06964 -79.38199 66 ft 14 kts 213°
2026-04-28 20:13 9.06898 -79.38275 66 ft 14 kts 238°
2026-04-28 20:14 9.06854 -79.38364 67 ft 13 kts 259°
2026-04-28 20:14 9.06891 -79.38438 69 ft 11 kts 318°
2026-04-28 20:14 9.06949 -79.38485 70 ft 6 kts 316°
2026-04-28 20:14 9.06967 -79.38508 71 ft 4 kts 303°
2026-04-28 20:15 9.06979 -79.38528 71 ft 1 kts 300°
2026-04-28 20:15 9.06983 -79.38535 71 ft 1 kts 300°
2026-04-28 20:15 9.06984 -79.38536 71 ft 0 kts 299°